Location: Newark
(34.1765°N, 84.7452°W)
Time: 02:34:29
(UTC+00:00)

Starlink Launch 2 trailer - Visible Passes

Search period start: 11 December 2019 00:00
Search period end: 21 December 2019 00:00
Orbit: 279 x 281 km, 53.0° (Epoch: 13 November)

Date Brightness Start Highest point End Pass type
(mag) Time Alt. Az. Time Alt. Az. Time Alt. Az.
11 Dec 2.1 11:28:41 34° NW 11:29:33 80° SW 11:31:59 10° SE visible
12 Dec 3.4 11:31:00 26° WSW 11:31:25 27° SW 11:33:34 10° SSE visible
13 Dec 4.7 11:33:25 12° SW 11:33:25 12° SW 11:34:14 10° SSW visible
19 Dec 4.4 23:11:33 10° SSE 23:13:03 15° SE 23:14:19 11° E visible
20 Dec 3.1 23:12:34 10° SSW 23:14:52 35° SE 23:16:37 14° ENE visible
